Probability
0 0 0 0 0 0 0 0 0 1 0 0 0 0 0 0 0 0 0 0 1 2 1 1 2 4 5 3 1 0 0 0 0 0 0 0 0 0 0 0 0 0 0 0 0 0 1 1 2
0 0 0 0 0 0 0 0 0 1 0 0 0 0 0 0 0 0 0 0 1 2 2 1 2 3 4 4 2 0 0 0 0 0 0 0 0 0 0 0 0 0 0 0 0 0 1 1 2
0 0 0 0 0 0 0 0 1 1 0 0 0 0 0 0 0 0 0 0 1 2 1 1 2 3 3 4 3 1 0 0 0 0 0 0 0 0 0 0 0 0 0 0 0 0 0 1 2
0 0 0 0 0 0 0 1 2 1 0 0 0 0 0 0 0 0 0 0 1 1 1 1 2 3 3 4 4 1 0 0 0 0 0 0 0 0 0 0 0 0 0 0 0 0 0 0 1
0 0 0 0 0 0 0 1 2 1 0 0 0 0 0 0 0 0 0 0 0 1 1 1 1 1 2 3 2 1 0 0 0 0 0 0 0 0 0 0 0 0 0 0 0 0 0 0 0
0 0 0 0 0 0 0 1 1 0 0 0 0 0 0 0 0 0 0 0 0 1 2 1 0 0 1 1 1 1 0 0 0 0 0 0 0 0 0 0 0 0 0 0 0 0 0 0 0
0 0 0 0 0 0 0 0 0 0 0 0 0 0 0 0 0 0 0 0 0 1 2 1 0 0 0 0 0 0 0 0 0 0 0 0 0 0 0 0 0 0 0 0 0 0 0 0 0
0 0 0 0 0 0 0 0 0 0 0 0 0 0 0 0 0 0 0 0 0 1 2 2 1 0 0 0 0 0 0 0 0 0 0 0 0 0 0 0 0 0 0 0 0 0 0 0 0
0 0 0 0 0 0 0 0 0 0 0 0 0 0 0 0 0 0 0 0 0 0 1 2 1 0 0 0 0 0 0 0 0 0 0 0 0 0 0 0 0 0 0 0 0 0 0 0 0
0 0 0 0 0 0 0 0 0 0 0 0 0 0 0 0 0 0 0 0 0 0 0 1 1 0 0 0 0 0 0 0 0 0 0 0 0 0 0 0 0 0 0 0 0 0 0 0 0
0 0 0 0 0 0 0 0 0 0 0 0 0 0 0 0 0 0 0 0 0 0 0 0 0 0 0 0 0 0 0 0 0 0 0 0 0 0 0 0 0 0 0 0 0 0 0 0 0
0 0 0 0 0 0 0 0 0 0 0 0 0 0 0 0 0 0 0 0 0 0 0 0 0 0 0 1 1 1 0 0 0 0 0 0 0 0 0 0 0 0 0 0 0 0 0 0 0
0 0 0 0 0 0 0 0 0 0 0 0 0 0 0 0 0 0 0 0 0 0 0 0 0 0 0 1 1 1 0 0 0 0 0 0 0 0 0 0 0 0 0 0 0 0 0 0 0
0 0 0 0 0 0 0 0 0 0 0 0 0 0 0 0 0 0 0 0 0 0 0 0 0 0 0 0 0 0 0 0 0 0 0 0 0 0 0 0 0 0 0 0 0 0 0 0 0
0 0 0 0 0 0 0 0 0 0 0 0 0 0 0 0 0 0 0 0 0 0 0 0 0 0 0 0 0 0 0 0 0 0 0 0 0 0 0 0 0 0 0 0 0 0 0 0 0
0 0 0 0 0 0 0 0 0 0 0 0 0 0 0 0 0 0 0 0 0 0 0 0 0 0 0 0 1 1 1 0 0 0 0 0 0 0 0 0 0 0 0 0 0 0 0 0 0
0 0 0 0 0 0 0 0 0 0 0 0 0 0 0 0 0 0 0 0 0 0 0 0 0 0 0 0 1 1 1 0 0 0 0 0 0 0 0 0 0 0 0 0 0 0 0 0 0
0 0 0 0 0 0 0 0 0 0 0 0 0 0 0 0 0 0 0 0 0 0 0 0 0 0 0 0 0 0 0 0 0 0 0 0 0 0 0 0 0 0 0 0 0 0 0 0 0
0 0 0 0 0 0 0 0 0 0 0 0 0 0 0 0 0 0 0 0 0 0 0 0 0 0 0 0 0 0 0 0 0 0 0 0 0 0 0 0 0 0 0 0 0 0 0 0 0
0 0 0 0 0 0 0 0 0 0 0 0 0 0 0 0 0 0 0 0 0 0 0 0 0 0 0 0 0 0 0 0 0 0 0 0 0 0 0 0 0 0 0 0 0 0 0 0 0
0 0 0 0 0 0 0 0 0 0 0 0 0 0 0 0 0 0 0 0 0 0 0 0 0 0 0 0 0 0 0 0 0 0 0 0 0 0 0 0 0 0 0 0 0 0 0 0 0
0 0 0 0 0 0 0 0 0 0 0 0 0 0 0 0 0 0 0 0 0 0 0 0 0 0 0 0 0 0 0 0 0 0 0 0 0 0 0 0 0 0 0 0 0 0 0 0 0
0 0 0 0 0 0 0 0 0 0 0 0 0 0 0 0 0 0 0 0 0 0 0 0 0 0 0 0 0 0 0 0 0 0 0 0 0 0 0 0 0 0 0 0 0 0 0 0 0
0 0 0 0 0 0 0 0 0 0 0 0 0 0 0 0 0 0 0 0 0 0 0 0 0 0 0 0 0 1 1 1 0 0 0 0 0 0 0 0 0 0 0 0 0 0 0 0 0
0 0 0 0 0 0 0 0 0 0 0 0 0 0 0 0 0 0 0 0 0 0 0 0 0 0 0 0 0 1 2 2 1 1 1 0 0 0 0 0 0 0 0 0 0 0 0 0 0
0 0 0 0 0 0 0 0 0 0 0 0 0 0 0 0 0 0 0 0 0 0 0 0 0 0 0 0 0 1 2 2 2 2 2 1 0 0 0 0 0 0 0 0 0 0 0 0 0
0 0 0 0 0 0 0 0 0 0 0 0 0 0 0 0 0 0 0 0 0 0 0 0 0 0 0 0 0 0 1 1 1 1 2 1 0 0 0 0 0 0 0 0 0 0 0 0 0
0 0 0 0 0 0 0 0 0 0 0 0 0 0 0 0 0 0 0 0 0 0 0 0 0 0 0 0 0 0 0 0 0 0 1 1 0 0 0 0 0 0 0 0 0 0 0 0 0
0 0 0 0 0 0 0 0 0 0 0 0 0 0 0 0 0 0 0 0 0 0 0 0 0 0 0 0 0 0 0 0 0 0 0 0 0 0 0 0 0 0 0 0 0 0 0 0 0
0 0 0 0 0 0 0 0 0 0 0 0 0 0 0 0 0 0 0 0 0 0 0 0 0 0 0 0 0 0 0 0 0 0 0 0 0 0 0 0 0 0 0 0 0 0 0 0 0
Wind_Speed
13 9 6 3 3 5 7 4 1 2 4 5 6 5 5 6 5 6 3 4 6 7 8 7 8 9 9 9 9 9 9 9 9 9 10 10 10 10 11 11 11 11 12 12 12 12 12 11 11
9 7 4 3 4 5 5 4 3 4 6 5 4 2 3 5 7 7 3 3 5 7 7 7 9 9 9 10 10 10 10 10 9 9 10 10 10 10 10 11 11 11 11 11 11 11 11 11 10
8 7 4 3 6 6 2 2 6 6 6 3 2 3 4 5 6 4 3 3 5 7 7 8 9 9 9 10 10 10 10 10 10 10 10 9 10 10 10 11 11 11 11 11 11 11 11 11 10
4 3 4 5 8 5 3 2 6 6 4 2 2 4 5 6 4 5 5 4 6 7 7 8 9 9 9 9 10 10 9 10 10 9 9 9 9 9 9 10 10 11 11 11 11 11 11 10 10
3 3 5 7 7 4 0 3 3 3 3 3 2 3 4 4 7 7 5 5 6 6 7 7 9 9 9 9 9 9 9 9 9 9 9 10 10 10 9 9 9 10 10 10 10 10 10 10 10
3 3 5 7 7 4 1 2 1 1 2 3 1 2 4 5 6 5 4 4 5 6 7 7 8 8 8 8 8 8 9 8 8 9 9 9 10 10 9 9 9 9 9 9 9 9 9 9 9
3 4 7 7 5 3 1 1 1 0 1 1 1 1 4 4 5 4 4 4 5 6 6 5 5 6 7 7 7 7 8 8 8 8 8 8 8 9 9 9 9 9 9 9 9 9 8 8 8
3 3 6 6 5 3 1 1 2 2 1 3 2 1 3 4 4 4 4 4 5 5 4 4 4 4 4 5 6 7 7 7 7 7 7 7 7 8 8 8 8 8 8 8 8 8 7 7 7
3 4 5 4 3 1 3 1 2 3 2 2 3 4 5 8 6 5 4 3 3 4 3 3 3 3 4 4 5 5 5 5 5 5 5 4 3 4 4 6 7 8 7 7 7 7 6 5 5
2 3 4 2 3 1 2 1 1 1 1 0 1 4 6 6 5 5 4 4 3 3 2 2 3 3 3 3 3 2 3 2 2 2 2 2 2 3 4 6 6 6 6 6 6 6 5 3 2
2 2 2 2 3 3 1 1 1 1 2 2 2 4 6 5 5 4 4 4 4 4 3 2 2 3 3 2 2 1 1 2 2 2 2 2 2 2 2 2 3 2 3 2 3 3 2 2 2
2 2 2 2 3 2 1 1 2 3 2 1 1 3 5 6 6 5 5 4 4 4 4 3 2 2 3 2 2 2 1 1 1 1 2 2 1 1 1 2 1 1 1 1 1 1 2 2 3
4 2 2 2 1 1 1 2 3 4 1 1 0 2 4 5 5 5 5 4 4 4 4 4 3 3 3 2 2 2 2 1 2 1 1 2 1 1 1 1 1 1 1 1 1 1 1 2 2
0 0 1 1 1 1 2 4 4 5 2 2 3 4 5 5 5 5 4 4 4 4 4 3 4 3 3 3 2 2 2 2 2 2 1 2 1 1 1 2 1 1 1 1 1 1 1 1 1
1 1 2 3 3 2 1 5 6 6 4 4 4 5 5 5 5 5 5 4 4 4 4 4 4 3 3 3 3 2 2 2 2 1 1 2 1 2 2 2 1 1 1 1 1 1 1 1 1
3 3 3 3 4 3 2 6 3 3 3 4 4 4 5 5 5 5 5 4 4 4 4 4 4 4 4 3 3 2 2 2 2 2 1 2 2 2 2 2 1 1 1 1 1 1 1 1 1
4 3 4 2 3 3 4 5 2 1 2 4 4 5 4 4 4 4 5 5 4 4 4 4 4 4 4 3 3 3 2 2 2 2 2 2 2 1 2 2 1 2 1 1 1 1 1 1 1
2 3 4 3 2 3 4 7 6 3 4 5 5 4 4 5 5 5 5 5 5 4 4 5 4 4 4 3 2 2 3 2 2 2 2 2 1 1 2 2 2 2 2 1 1 1 1 1 1
3 4 5 3 1 1 5 8 9 5 5 6 5 4 4 5 4 4 5 5 5 5 5 5 4 4 4 3 3 3 3 2 2 2 2 2 1 2 2 2 2 2 2 2 2 2 2 1 1
4 6 6 2 1 2 5 9 9 7 7 7 6 5 5 4 3 4 4 5 5 5 5 5 5 4 4 3 3 2 3 3 2 2 2 2 2 2 2 2 2 2 2 2 2 2 1 0 0
5 5 4 3 4 4 4 7 6 5 6 5 5 4 3 3 4 4 4 5 5 5 6 6 6 5 5 4 3 2 2 2 2 2 2 2 2 2 2 2 2 2 2 2 2 2 2 1 0
4 2 3 3 3 3 2 5 5 4 4 5 5 4 4 3 3 4 4 4 5 5 5 5 5 5 5 5 4 5 3 3 3 3 2 2 2 2 2 2 3 3 2 2 2 2 1 2 0
2 2 2 3 3 4 3 4 7 3 5 5 4 4 3 3 4 4 4 4 4 4 4 5 5 5 4 5 5 5 3 2 2 3 4 3 2 2 2 2 2 3 2 3 3 2 1 1 1
1 1 2 2 1 4 5 5 7 3 4 3 2 3 3 3 3 3 3 3 3 3 4 4 5 5 4 5 5 5 5 4 3 4 4 3 2 2 2 2 2 3 2 2 3 2 2 1 1
2 1 0 1 2 6 3 4 8 3 1 1 2 2 2 3 3 3 3 4 4 4 4 4 5 5 4 5 5 5 5 5 5 4 4 4 2 2 3 3 3 2 2 2 2 2 2 2 1
4 3 3 3 3 3 2 6 6 1 1 1 1 2 2 2 3 3 3 3 3 4 4 5 5 4 5 5 5 4 4 3 3 3 3 3 3 3 3 3 3 2 2 2 2 2 2 1 1
3 4 2 1 1 3 5 4 3 1 1 1 1 1 1 2 2 3 3 2 3 4 4 5 5 4 5 5 4 4 4 3 3 3 3 3 2 2 3 3 3 3 2 2 2 2 2 2 2
2 1 1 2 2 4 5 5 4 4 4 3 3 3 2 2 2 2 2 2 3 3 3 3 4 4 4 4 4 4 4 4 4 3 3 3 3 3 3 3 3 3 2 2 2 1 1 1 1
4 3 3 2 3 3 4 5 1 4 4 3 2 2 3 3 3 3 2 2 2 2 3 3 4 4 4 4 4 4 4 4 4 3 3 3 3 3 4 4 3 3 3 3 3 2 2 2 2
3 5 5 4 4 3 3 7 1 1 2 2 2 1 2 2 3 2 3 3 3 3 3 3 4 4 4 4 4 4 4 3 4 4 3 3 4 3 4 4 3 3 3 3 4 3 3 3 3
Wind_Direction
305 282 265 256 238 234 239 228 206 101 75 51 39 26 35 27 31 99 112 75 93 106 116 120 106 105 104 103 100 98 95 90 87 85 82 78 76 76 75 72 70 68 68 68 67 66 65 63 61
300 287 261 244 241 237 235 204 169 84 86 78 59 40 57 67 71 97 99 79 101 110 116 116 105 106 103 101 100 96 94 91 89 87 85 80 76 75 75 73 71 70 69 68 68 68 67 65 61
282 270 253 235 236 240 240 106 104 92 96 105 98 42 38 62 81 90 95 105 101 104 105 108 107 106 104 102 99 97 95 92 89 87 85 82 78 76 75 73 72 72 70 67 66 68 67 64 60
271 241 243 244 242 248 260 76 100 109 105 86 93 90 78 49 55 90 105 103 101 100 100 103 101 103 104 102 100 100 98 94 91 88 85 82 81 78 77 76 75 73 71 69 67 66 65 62 57
244 245 235 242 243 249 7 57 96 128 138 122 110 105 93 72 78 97 105 102 99 100 99 104 98 99 99 101 100 103 102 98 95 89 84 81 79 76 76 78 80 77 74 71 69 64 62 58 54
246 238 234 234 231 222 115 78 111 162 134 106 101 101 101 107 97 102 104 97 95 99 100 103 96 98 97 97 99 99 101 98 95 90 85 81 79 76 74 77 79 77 74 71 68 63 60 56 52
261 253 249 248 235 228 174 125 165 156 110 103 8 108 115 113 102 109 108 98 92 93 100 105 107 103 97 93 92 96 99 95 92 91 88 84 80 78 76 78 80 79 76 71 65 61 56 54 49
290 276 255 247 234 229 140 109 58 18 46 44 31 55 105 119 109 112 111 105 99 93 99 110 118 117 111 99 93 94 97 97 94 91 89 87 86 82 76 73 77 79 76 72 66 59 53 51 45
283 254 254 265 260 169 109 103 56 27 60 57 58 58 80 116 118 116 116 107 100 99 98 112 119 115 115 120 113 105 102 101 99 92 96 95 92 91 83 76 72 72 73 71 67 58 49 43 37
245 245 254 308 334 27 87 93 100 121 143 183 81 84 107 121 135 142 147 152 144 135 124 124 129 122 120 125 125 127 124 119 104 101 107 96 80 85 89 85 78 72 70 64 59 54 41 25 18
229 246 268 318 350 7 35 341 332 245 243 237 208 163 145 149 157 169 176 175 171 166 153 144 147 139 131 122 128 125 121 122 116 111 100 94 89 91 88 93 85 82 79 64 41 36 29 26 28
229 263 306 342 3 15 344 301 292 258 266 344 39 148 154 169 180 190 193 188 174 166 162 156 146 148 147 143 140 128 120 128 129 122 115 110 100 98 105 100 93 74 65 72 64 25 21 31 35
229 252 331 347 29 30 348 273 277 266 274 341 54 169 191 193 193 196 194 184 172 167 163 166 157 156 159 155 148 135 131 138 132 120 121 114 114 115 105 102 94 78 57 56 59 35 24 35 29
46 338 281 263 285 301 279 269 254 255 216 204 211 220 214 211 201 196 189 186 182 174 166 158 166 166 158 153 150 138 135 128 119 119 126 122 112 111 109 101 97 89 77 54 54 40 28 33 35
190 207 267 232 213 205 267 274 227 235 214 221 223 230 224 214 201 198 191 188 183 179 166 162 162 162 160 162 160 139 135 127 118 113 121 115 110 117 115 113 108 96 85 69 56 29 32 33 39
215 224 241 197 189 178 198 269 237 208 201 230 233 235 227 217 206 201 188 184 179 174 168 165 161 162 164 164 161 146 139 130 123 123 122 116 114 121 120 118 116 112 107 99 91 46 27 21 37
212 237 244 214 172 165 199 257 263 173 211 253 252 244 233 226 218 204 188 177 177 178 171 165 162 163 164 161 161 150 137 129 126 122 119 120 112 119 128 126 127 123 109 98 99 61 46 46 40
219 240 253 235 166 184 226 255 268 244 230 247 251 242 233 229 223 201 183 169 169 172 169 166 167 170 157 154 163 148 137 132 123 128 127 123 124 129 119 121 137 137 124 106 88 70 52 71 52
295 285 282 282 24 225 245 260 268 256 244 248 246 235 228 231 216 184 168 161 164 170 168 165 168 176 161 167 181 173 171 159 148 143 133 136 137 138 126 121 137 134 137 143 120 106 95 58 49
255 272 279 303 350 277 272 271 268 255 244 238 239 240 228 219 192 177 166 160 170 173 172 173 177 177 170 174 179 174 160 163 157 136 128 136 137 136 132 135 139 131 126 123 116 113 118 132 57
249 246 269 287 303 254 278 284 250 246 235 234 234 234 231 212 191 181 174 172 173 180 181 182 181 179 178 168 155 134 128 119 139 151 159 160 148 142 140 144 138 143 146 151 143 143 138 156 280
250 260 259 263 288 271 229 287 269 246 243 230 224 221 223 204 186 175 174 176 182 186 181 179 178 176 176 169 166 158 169 179 181 169 163 151 145 144 145 145 149 157 157 158 164 159 178 132 142
246 305 266 258 261 280 241 255 276 237 253 244 220 212 214 193 183 183 181 179 175 173 174 175 171 174 173 169 169 169 176 182 161 149 148 151 154 155 153 152 158 166 170 169 165 165 177 160 163
237 279 264 252 256 263 226 217 273 230 238 244 221 203 191 181 167 171 163 157 161 155 156 166 170 176 171 169 169 176 176 169 161 167 162 164 161 166 169 162 165 169 176 176 173 172 173 169 166
218 163 291 254 224 247 207 211 249 247 245 232 221 189 157 150 149 157 156 162 166 160 158 163 167 171 167 168 174 180 180 175 178 177 169 163 163 173 190 181 176 172 172 166 157 162 177 180 179
210 195 184 218 240 272 233 229 246 219 156 97 108 110 122 144 153 154 158 165 170 167 165 169 171 173 169 171 177 177 176 177 183 178 164 166 170 172 167 174 173 171 167 166 162 169 185 177 190
195 217 233 219 284 282 252 240 261 249 224 198 170 159 174 163 156 154 152 160 168 173 176 178 174 173 172 172 170 172 174 175 177 171 162 159 156 152 152 163 168 170 163 170 172 180 194 187 196
268 266 157 184 215 257 263 241 237 218 218 208 191 191 187 168 151 145 154 170 174 175 170 166 169 171 166 166 172 174 176 183 178 166 166 160 156 147 151 162 172 166 168 177 175 173 184 185 211
180 205 205 205 223 221 263 260 250 192 179 170 185 183 169 169 170 171 171 166 159 156 161 168 168 164 165 170 171 173 174 175 174 174 173 167 158 152 160 166 172 174 179 183 189 194 189 202 219
212 206 187 190 236 235 256 267 357 85 125 148 172 173 152 157 167 173 172 161 159 169 172 174 173 171 173 172 168 172 168 168 177 182 179 169 166 167 169 170 179 186 189 192 198 204 204 211 221